[[{"header":{"parameterUnit":"m.s-1","parameterCategory":2,"la1":30.2991,"la2":30.254,"lo1":-89.0895,"lo2":-89.0444,"dy":0.0017,"dx":0.0017,"nx":28,"ny":28,"refTime":"2025-07-11T21:00:00:Z","depth":"0","parameterNumber":2,"parameterNumberName":"U-component_of_CURRENTS"},"data":[0,0,0,0,0,0,0,0,0,0,0,0,0,0,0,0,0,0,0,0,0,0,0,0,0,0,0,0,0,0,0,0,0,0,0,0,0,0,0,0,0,0,0,0,0,0,0,0,0,0,0,0,0,0,0,0,0,0,-0.1354,-0.1355,0,-0.1428,-0.1428,-0.1429,-0.1484,-0.1484,-0.1485,-0.1485,-0.1516,-0.1516,-0.1517,0,0,0,0,0,0,0,0,0,0,0,0,0,-0.1262,-0.1264,-0.1354,-0.1355,-0.1355,-0.1427,-0.1428,-0.143,-0.1484,-0.1484,-0.1485,-0.1485,-0.1516,-0.1516,-0.1517,0,0,0,0,0,0,0,0,0,0,0,0,0,-0.1317,-0.1264,-0.1354,-0.1391,-0.1395,-0.1427,-0.1429,-0.143,-0.1484,-0.1484,-0.1485,-0.1486,-0.1515,-0.1516,-0.1517,-0.1509,0,0,-0.1519,-0.1519,0,0,0,0,0,0,0,0,-0.1313,-0.132,-0.1384,-0.1388,-0.1393,-0.1446,-0.1408,-0.1454,-0.1484,-0.1451,-0.1485,-0.1486,-0.1487,-0.149,-0.1505,-0.151,-0.1512,-0.1519,-0.1519,-0.152,-0.152,0,0,0,0,0,0,0,-0.131,-0.1317,-0.1384,-0.1385,-0.139,-0.1404,-0.1413,-0.1417,-0.1465,-0.1454,-0.1458,-0.1464,-0.149,-0.1504,-0.1506,-0.1512,-0.1519,-0.1519,-0.152,-0.152,-0.1532,-0.1532,0,0,0,0,0,0,-0.1298,-0.1314,-0.1382,-0.1386,-0.1353,-0.1405,-0.1415,-0.1429,-0.1466,-0.1472,-0.1464,-0.1466,-0.1503,-0.1505,-0.1507,-0.1508,-0.152,-0.152,-0.1521,-0.1532,-0.1532,-0.1532,0,0,0,0,0,0,-0.1296,-0.1304,-0.1379,-0.135,-0.1361,-0.1406,-0.1422,-0.143,-0.1447,-0.1474,-0.148,-0.1472,-0.1503,-0.1506,-0.1512,-0.1509,-0.152,-0.1521,-0.1533,-0.1532,-0.1532,-0.1504,0,0,0,0,0,0,-0.1293,-0.1303,-0.1302,-0.135,-0.1362,-0.1396,-0.1422,-0.1431,-0.145,-0.1454,-0.1482,-0.1486,-0.1504,-0.1511,-0.1513,-0.151,-0.1522,-0.1533,-0.1532,-0.1532,-0.1505,-0.1503,-0.1501,0,0,0,0,0,-0.129,-0.1283,-0.1302,-0.1309,-0.1362,-0.1395,-0.1403,-0.1437,-0.1449,-0.1455,-0.1474,-0.1485,-0.1512,-0.1511,-0.1513,-0.1511,-0.1533,-0.1532,-0.1532,-0.1506,-0.1503,-0.1501,0,0,0,0,0,0,-0.1239,-0.129,-0.1311,-0.1319,-0.1355,-0.1404,-0.1405,-0.1432,-0.1453,-0.1453,-0.148,-0.1485,-0.1492,-0.1502,-0.1501,-0.1515,-0.1525,-0.1525,-0.1504,-0.1502,-0.15,-0.1502,-0.1522,0,0,0,0,0,-0.1228,-0.1234,-0.1291,-0.1293,-0.1311,-0.1358,-0.1372,-0.1401,-0.1428,-0.144,-0.1459,-0.1477,-0.1493,-0.1498,-0.1512,-0.1512,-0.1511,-0.1514,-0.1512,-0.151,-0.1513,-0.1514,-0.1512,-0.1532,-0.1532,-0.1532,0,0,-0.1202,-0.1232,-0.1233,-0.1281,-0.131,-0.1337,-0.1368,-0.1389,-0.1408,-0.1436,-0.1452,-0.1469,-0.1492,-0.15,-0.1504,-0.1508,-0.1499,-0.151,-0.1508,-0.1512,-0.1513,-0.1511,-0.1509,-0.1532,-0.1532,-0.1532,0,0,-0.1165,-0.1189,-0.1193,-0.1223,-0.1269,-0.1305,-0.1311,-0.1363,-0.1383,-0.14,-0.1428,-0.1445,-0.1462,-0.1486,-0.1498,-0.1491,-0.149,-0.1491,-0.148,-0.148,-0.1478,-0.1477,-0.1449,-0.1445,-0.1488,-0.1488,-0.1488,0,-0.1139,-0.1155,-0.1196,-0.1215,-0.1233,-0.1291,-0.1306,-0.1336,-0.1381,-0.1392,-0.1399,-0.144,-0.1459,-0.148,-0.1483,-0.1487,-0.1475,-0.1486,-0.1477,-0.1476,-0.1475,-0.1447,-0.1443,-0.1487,-0.1487,-0.1487,-0.1487,0,-0.1122,-0.1132,-0.1133,-0.1183,-0.1207,-0.1222,-0.128,-0.1303,-0.133,-0.1362,-0.1384,-0.1413,-0.144,-0.1447,-0.1464,-0.147,-0.1457,-0.1474,-0.1481,-0.1471,-0.1442,-0.1438,-0.1485,-0.1486,-0.1486,-0.1486,0,0,-0.1082,-0.1116,-0.1118,-0.113,-0.1191,-0.1212,-0.1241,-0.1289,-0.1308,-0.1341,-0.1357,-0.1393,-0.1413,-0.1428,-0.1451,-0.1454,-0.1432,-0.1457,-0.1458,-0.1425,-0.1404,-0.1371,-0.1364,-0.1442,-0.1442,-0.1442,-0.1376,0,-0.1063,-0.1077,-0.1104,-0.1115,-0.1132,-0.1184,-0.1208,-0.1253,-0.1292,-0.132,-0.1356,-0.1378,-0.1404,-0.1413,-0.1423,-0.1438,-0.1426,-0.1447,-0.1423,-0.1422,-0.1391,-0.1361,-0.1317,-0.1253,-0.1373,-0.1373,-0.1372,0,-0.105,-0.1062,-0.1067,-0.1089,-0.1101,-0.1116,-0.1167,-0.1194,-0.1253,-0.1278,-0.1313,-0.1347,-0.1371,-0.1389,-0.1397,-0.1405,-0.14,-0.1404,-0.1402,-0.1383,-0.1384,-0.1289,-0.1243,-0.1143,-0.1367,-0.1368,-0.1368,0,-0.1011,-0.1034,-0.1032,-0.1042,-0.1086,-0.1091,-0.1116,-0.1176,-0.12,-0.1251,-0.1269,-0.1308,-0.132,-0.1333,-0.1351,-0.1369,-0.1341,-0.1369,-0.1328,-0.1325,-0.1291,-0.1284,-0.1146,-0.136,-0.136,-0.136,-0.136,0,-0.0982,-0.098,-0.1011,-0.1007,-0.1017,-0.1052,-0.1067,-0.1107,-0.1151,-0.1176,-0.1237,-0.1256,-0.1306,-0.1309,-0.1325,-0.1305,-0.1317,-0.1315,-0.1308,-0.1276,-0.127,-0.1187,-0.1219,-0.1358,-0.1358,-0.1359,-0.1359,0,-0.0938,-0.0956,-0.096,-0.0987,-0.0996,-0.1003,-0.1036,-0.1051,-0.1095,-0.1127,-0.1139,-0.1201,-0.12,-0.1228,-0.1238,-0.1259,-0.1229,-0.124,-0.1184,-0.1173,-0.1059,-0.1095,-0.1115,-0.107,-0.1187,-0.1186,-0.1185,0,-0.0918,-0.0909,-0.0938,-0.0945,-0.0952,-0.0967,-0.098,-0.1024,-0.1044,-0.1095,-0.1103,-0.1114,-0.1122,-0.1113,-0.1143,-0.1136,-0.1146,-0.1099,-0.1141,-0.1028,-0.1063,-0.1156,-0.1123,-0.107,-0.1069,-0.1067,-0.1066,0,-0.0875,-0.0883,-0.0888,-0.0899,-0.0908,-0.0925,-0.0939,-0.0948,-0.0999,-0.1017,-0.1031,-0.1032,-0.1037,-0.1029,-0.1026,-0.1026,-0.1071,-0.1068,-0.097,-0.0975,-0.1051,-0.101,-0.1119,-0.1053,-0.1054,-0.1055,-0.1056,-0.1056,-0.0843,-0.0839,-0.084,-0.0849,-0.0865,-0.0869,-0.0847,-0.0869,-0.0876,-0.0873,-0.0938,-0.0907,-0.0937,-0.0933,-0.09,-0.0832,-0.0967,-0.0827,-0.088,-0.0982,-0.0944,-0.1008,-0.0931,-0.0931,-0.0932,-0.0932,-0.0933,0,-0.0807,-0.0792,-0.0788,-0.0791,-0.0784,-0.0811,-0.0808,-0.0767,-0.0739,-0.0758,-0.0756,-0.0777,-0.0738,-0.0722,-0.0727,-0.0672,-0.0684,-0.0624,-0.0712,-0.0684,-0.0719,-0.0711,-0.0558,-0.0558,-0.0559,-0.0559,-0.0559,-0.0559,-0.0783,-0.0758,-0.0748,-0.0711,-0.0709,-0.0663,-0.0644,-0.0589,-0.0569,-0.0525,-0.0532,-0.0558,-0.0567,-0.0678,-0.0568,-0.0524,-0.0493,-0.0548,-0.0526,-0.0494,-0.0516,-0.0536,-0.0525,-0.0337,-0.0337,-0.0449,-0.045,-0.0451]},{"header":{"parameterUnit":"m.s-1","parameterCategory":2,"la1":30.2991,"la2":30.254,"lo1":-89.0895,"lo2":-89.0444,"dy":0.0017,"dx":0.0017,"nx":28,"ny":28,"refTime":"2025-07-11T21:00:00:Z","depth":"0","parameterNumber":3,"parameterNumberName":"V-component_of_CURRENTS"},"data":[0,0,0,0,0,0,0,0,0,0,0,0,0,0,0,0,0,0,0,0,0,0,0,0,0,0,0,0,0,0,0,0,0,0,0,0,0,0,0,0,0,0,0,0,0,0,0,0,0,0,0,0,0,0,0,0,0,0,-0.1181,-0.1182,0,-0.1215,-0.1215,-0.1215,-0.1227,-0.1227,-0.1228,-0.1228,-0.1117,-0.1114,-0.1111,0,0,0,0,0,0,0,0,0,0,0,0,0,-0.1076,-0.1077,-0.1181,-0.1182,-0.1183,-0.1215,-0.1215,-0.1215,-0.1227,-0.1227,-0.1228,-0.1228,-0.1119,-0.1115,-0.1111,0,0,0,0,0,0,0,0,0,0,0,0,0,-0.1112,-0.1078,-0.1181,-0.1196,-0.1199,-0.1215,-0.1215,-0.1215,-0.1227,-0.1227,-0.1228,-0.1228,-0.112,-0.1115,-0.111,-0.1069,0,0,-0.1095,-0.1093,0,0,0,0,0,0,0,0,-0.111,-0.1115,-0.1193,-0.1195,-0.1198,-0.1222,-0.1138,-0.1161,-0.1227,-0.1211,-0.1228,-0.1229,-0.1142,-0.1135,-0.1135,-0.1064,-0.1059,-0.1095,-0.1092,-0.109,-0.1088,0,0,0,0,0,0,0,-0.1107,-0.1113,-0.1189,-0.1194,-0.1197,-0.1185,-0.119,-0.1142,-0.1166,-0.1212,-0.1214,-0.1226,-0.1141,-0.114,-0.1132,-0.1058,-0.1095,-0.1091,-0.1088,-0.1086,-0.0964,-0.0964,0,0,0,0,0,0,-0.1116,-0.1112,-0.1188,-0.1191,-0.116,-0.1187,-0.1193,-0.1209,-0.117,-0.1167,-0.1226,-0.1227,-0.1148,-0.1138,-0.1128,-0.1086,-0.109,-0.1085,-0.1082,-0.0964,-0.0964,-0.0964,0,0,0,0,0,0,-0.1114,-0.1123,-0.1187,-0.1155,-0.1163,-0.1189,-0.1207,-0.121,-0.1209,-0.1183,-0.1176,-0.1223,-0.1148,-0.1135,-0.1094,-0.1081,-0.1083,-0.1078,-0.0965,-0.0964,-0.0964,-0.0994,0,0,0,0,0,0,-0.1111,-0.1122,-0.1129,-0.1156,-0.1166,-0.1192,-0.1207,-0.121,-0.1219,-0.122,-0.1178,-0.1169,-0.1148,-0.1102,-0.109,-0.1074,-0.1075,-0.0965,-0.0964,-0.0964,-0.0994,-0.0995,-0.0996,0,0,0,0,0,-0.1107,-0.1116,-0.1129,-0.1139,-0.1178,-0.1192,-0.1194,-0.1211,-0.1218,-0.1212,-0.1195,-0.117,-0.109,-0.1098,-0.1083,-0.1066,-0.0965,-0.0965,-0.0964,-0.0993,-0.0995,-0.0996,0,0,0,0,0,0,-0.1065,-0.112,-0.1135,-0.1158,-0.1173,-0.1196,-0.1196,-0.1207,-0.1191,-0.1189,-0.1162,-0.1151,-0.1112,-0.1083,-0.1093,-0.1031,-0.1024,-0.102,-0.1051,-0.1052,-0.1053,-0.1065,-0.1071,0,0,0,0,0,-0.1064,-0.1093,-0.1127,-0.1144,-0.1151,-0.1171,-0.1178,-0.119,-0.1187,-0.1182,-0.1156,-0.1125,-0.1097,-0.1072,-0.1039,-0.0996,-0.0988,-0.0977,-0.0978,-0.0979,-0.0979,-0.0966,-0.0967,-0.0961,-0.0961,-0.0961,0,0,-0.1053,-0.1087,-0.1103,-0.1138,-0.115,-0.1156,-0.1175,-0.1185,-0.1186,-0.1167,-0.1144,-0.1124,-0.1088,-0.1054,-0.1032,-0.1027,-0.0979,-0.0979,-0.098,-0.0979,-0.0966,-0.0966,-0.0967,-0.0961,-0.0961,-0.0961,0,0,-0.1044,-0.1073,-0.1091,-0.1105,-0.1132,-0.1142,-0.1144,-0.116,-0.1162,-0.1144,-0.1137,-0.1115,-0.1059,-0.1044,-0.1026,-0.1008,-0.0989,-0.0992,-0.1,-0.0987,-0.0988,-0.0988,-0.0993,-0.0993,-0.0989,-0.0989,-0.0989,0,-0.1023,-0.1061,-0.1092,-0.1106,-0.1118,-0.1134,-0.1138,-0.1139,-0.1139,-0.1137,-0.1136,-0.1089,-0.1057,-0.103,-0.1032,-0.101,-0.1008,-0.0999,-0.099,-0.099,-0.099,-0.0994,-0.0995,-0.0991,-0.0991,-0.099,-0.099,0,-0.1029,-0.1054,-0.106,-0.109,-0.1097,-0.1104,-0.1118,-0.1114,-0.1117,-0.1121,-0.11,-0.1076,-0.1051,-0.1038,-0.1028,-0.101,-0.1012,-0.0999,-0.0991,-0.0993,-0.0997,-0.0997,-0.0993,-0.0992,-0.0992,-0.0991,0,0,-0.0998,-0.1054,-0.1057,-0.1075,-0.1094,-0.1103,-0.1097,-0.1102,-0.1104,-0.1094,-0.1094,-0.106,-0.1059,-0.104,-0.1027,-0.1018,-0.1022,-0.1011,-0.101,-0.1023,-0.101,-0.1072,-0.1078,-0.1009,-0.1009,-0.1009,-0.1018,0,-0.099,-0.1021,-0.1048,-0.1063,-0.1076,-0.1092,-0.1091,-0.1095,-0.1091,-0.1087,-0.1077,-0.1062,-0.1056,-0.1049,-0.104,-0.1023,-0.102,-0.1021,-0.0998,-0.0998,-0.1059,-0.1079,-0.1034,-0.1044,-0.1018,-0.1018,-0.1018,0,-0.0987,-0.1013,-0.103,-0.1072,-0.1078,-0.1082,-0.1091,-0.1096,-0.1091,-0.109,-0.1079,-0.1068,-0.1055,-0.1051,-0.1032,-0.1035,-0.1026,-0.1017,-0.1017,-0.1063,-0.1059,-0.1033,-0.1044,-0.0763,-0.1017,-0.1017,-0.1017,0,-0.0962,-0.1003,-0.102,-0.1031,-0.1068,-0.1076,-0.1091,-0.1092,-0.1102,-0.109,-0.1091,-0.1072,-0.1069,-0.105,-0.104,-0.1032,-0.1028,-0.1009,-0.1059,-0.1064,-0.1015,-0.1017,-0.0757,-0.0998,-0.0998,-0.0998,-0.0998,0,-0.0953,-0.0967,-0.1013,-0.1025,-0.1044,-0.1072,-0.1086,-0.1092,-0.1106,-0.1118,-0.1095,-0.1104,-0.1069,-0.1064,-0.1046,-0.1067,-0.1032,-0.1072,-0.1072,-0.1028,-0.103,-0.0776,-0.0579,-0.0998,-0.0998,-0.0998,-0.0998,0,-0.0922,-0.0954,-0.0976,-0.1019,-0.1036,-0.1046,-0.1096,-0.1109,-0.1118,-0.1133,-0.1132,-0.1128,-0.1134,-0.111,-0.1087,-0.1089,-0.0945,-0.1099,-0.1065,-0.1063,-0.0873,-0.0682,-0.0518,-0.0394,-0.116,-0.1161,-0.1163,0,-0.0906,-0.0917,-0.0965,-0.0982,-0.1002,-0.1035,-0.1065,-0.1104,-0.1127,-0.1156,-0.1168,-0.1177,-0.12,-0.1207,-0.1199,-0.1196,-0.0965,-0.1147,-0.1129,-0.0861,-0.0646,-0.0578,-0.0478,-0.1069,-0.107,-0.107,-0.1071,0,-0.087,-0.0888,-0.0906,-0.0952,-0.0985,-0.1027,-0.1077,-0.1103,-0.1153,-0.1182,-0.1228,-0.1251,-0.128,-0.129,-0.1294,-0.1254,-0.0905,-0.1161,-0.086,-0.054,-0.0466,-0.0348,-0.1067,-0.1074,-0.1074,-0.1074,-0.1074,-0.1073,-0.0829,-0.0834,-0.0873,-0.0913,-0.0955,-0.101,-0.1038,-0.1105,-0.1161,-0.1226,-0.1277,-0.1348,-0.1295,-0.1319,-0.1252,-0.0965,-0.0947,-0.0834,-0.0625,-0.0588,-0.0448,-0.1207,-0.1236,-0.1236,-0.1237,-0.1237,-0.1237,0,-0.0791,-0.0812,-0.0842,-0.0893,-0.0937,-0.0974,-0.104,-0.1072,-0.1138,-0.1264,-0.1338,-0.1374,-0.1237,-0.1084,-0.0762,-0.0463,-0.0367,-0.0221,-0.0014,0.0059,-0.0586,-0.0559,-0.0468,-0.0468,-0.0469,-0.0469,-0.0469,-0.0469,-0.077,-0.0793,-0.0822,-0.0873,-0.0909,-0.0957,-0.0987,-0.1036,-0.1125,-0.1262,-0.1376,-0.1476,-0.1082,-0.0312,0.0218,0.0296,0.0659,0.0636,0.0813,0.0513,0.0474,0.0437,0.0509,0.0822,0.0824,0.137,0.1378,0.1383]}],[{"header":{"parameterUnit":"m.s-1","parameterCategory":2,"la1":30.2991,"la2":30.254,"lo1":-89.0895,"lo2":-89.0444,"dy":0.0017,"dx":0.0017,"nx":28,"ny":28,"refTime":"2025-07-11T21:00:00:Z","depth":"2","parameterNumber":2,"parameterNumberName":"U-component_of_CURRENTS"},"data":[0,0,0,0,0,0,0,0,0,0,0,0,0,0,0,0,0,0,0,0,0,0,0,0,0,0,0,0,0,0,0,0,0,0,0,0,0,0,0,0,0,0,0,0,0,0,0,0,0,0,0,0,0,0,0,0,0,0,-0.294,-0.2939,0,-0.2865,-0.2864,-0.2863,-0.2832,-0.2833,-0.2833,-0.2834,-0.2706,-0.2702,-0.2699,0,0,0,0,0,0,0,0,0,0,0,0,0,-0.2995,-0.2994,-0.294,-0.2939,-0.2939,-0.2866,-0.2864,-0.2863,-0.2832,-0.2833,-0.2833,-0.2834,-0.2708,-0.2703,-0.2698,0,0,0,0,0,0,0,0,0,0,0,0,0,-0.2947,-0.2994,-0.294,-0.2918,-0.2915,-0.2866,-0.2864,-0.2862,-0.2832,-0.2833,-0.2833,-0.2834,-0.2709,-0.2703,-0.2698,-0.2645,0,0,-0.268,-0.2677,0,0,0,0,0,0,0,0,-0.295,-0.2944,-0.2921,-0.2919,-0.2916,-0.2863,-0.2837,-0.2789,-0.2832,-0.2859,-0.2834,-0.2835,-0.2756,-0.2746,-0.2725,-0.2639,-0.2634,-0.2679,-0.2676,-0.2673,-0.2671,0,0,0,0,0,0,0,-0.2953,-0.2947,-0.2906,-0.2921,-0.2918,-0.2891,-0.2886,-0.2827,-0.2799,-0.2857,-0.2855,-0.2854,-0.2754,-0.2731,-0.2722,-0.2632,-0.2679,-0.2674,-0.2671,-0.2668,-0.2521,-0.252,0,0,0,0,0,0,-0.2973,-0.2951,-0.2908,-0.2904,-0.294,-0.289,-0.2883,-0.2875,-0.2801,-0.2792,-0.2853,-0.2853,-0.274,-0.2729,-0.2717,-0.2672,-0.2673,-0.2668,-0.2664,-0.2521,-0.2521,-0.252,0,0,0,0,0,0,-0.2975,-0.297,-0.2911,-0.293,-0.2921,-0.2889,-0.288,-0.2874,-0.2848,-0.28,-0.2789,-0.2835,-0.274,-0.2725,-0.2677,-0.2666,-0.2665,-0.266,-0.2522,-0.2521,-0.2521,-0.2567,0,0,0,0,0,0,-0.2976,-0.297,-0.2961,-0.2931,-0.2921,-0.2896,-0.288,-0.2872,-0.2849,-0.2847,-0.278,-0.277,-0.274,-0.2686,-0.2671,-0.2658,-0.2655,-0.2522,-0.2521,-0.2521,-0.2566,-0.2568,-0.257,0,0,0,0,0,-0.2978,-0.2965,-0.2961,-0.2956,-0.2912,-0.2897,-0.2889,-0.2866,-0.2847,-0.2843,-0.28,-0.2772,-0.2671,-0.2681,-0.2664,-0.2648,-0.2523,-0.2522,-0.2521,-0.2565,-0.2568,-0.257,0,0,0,0,0,0,-0.2978,-0.296,-0.2955,-0.2935,-0.2926,-0.2894,-0.2871,-0.2861,-0.2819,-0.2805,-0.2761,-0.2748,-0.2705,-0.2666,-0.2679,-0.2604,-0.2593,-0.2589,-0.2633,-0.2635,-0.2637,-0.264,-0.265,0,0,0,0,0,-0.2977,-0.2959,-0.2951,-0.2931,-0.2923,-0.2895,-0.2879,-0.2869,-0.2835,-0.2817,-0.2776,-0.2725,-0.2685,-0.2654,-0.2614,-0.2561,-0.2515,-0.2541,-0.2543,-0.2545,-0.2537,-0.2464,-0.2458,-0.2517,-0.2517,-0.2517,0,0,-0.2967,-0.2956,-0.2944,-0.293,-0.2906,-0.2893,-0.2885,-0.2861,-0.2848,-0.2806,-0.2759,-0.2728,-0.2675,-0.2633,-0.2608,-0.2598,-0.2505,-0.2544,-0.2547,-0.2537,-0.2462,-0.2456,-0.2451,-0.2517,-0.2517,-0.2517,0,0,-0.2941,-0.2931,-0.2909,-0.2905,-0.2887,-0.2878,-0.2876,-0.2847,-0.2833,-0.2794,-0.2767,-0.2733,-0.2658,-0.263,-0.2603,-0.2583,-0.2524,-0.2568,-0.2569,-0.2499,-0.2494,-0.2488,-0.243,-0.2419,-0.2562,-0.2562,-0.2562,0,-0.2932,-0.2906,-0.2902,-0.2885,-0.2877,-0.2874,-0.2857,-0.2843,-0.2806,-0.2789,-0.2785,-0.2689,-0.2656,-0.2603,-0.2611,-0.2587,-0.2539,-0.2569,-0.2502,-0.2495,-0.2489,-0.243,-0.2417,-0.2564,-0.2564,-0.2564,-0.2563,0,-0.2893,-0.2877,-0.2861,-0.2844,-0.2839,-0.2823,-0.2821,-0.2808,-0.2791,-0.2776,-0.2728,-0.2689,-0.2638,-0.2624,-0.2611,-0.2553,-0.2532,-0.2521,-0.2499,-0.2486,-0.2425,-0.2411,-0.2567,-0.2566,-0.2566,-0.2565,0,0,-0.2855,-0.2839,-0.283,-0.2825,-0.2818,-0.2811,-0.2795,-0.2783,-0.2762,-0.2735,-0.2697,-0.2655,-0.2646,-0.2615,-0.2594,-0.2536,-0.2468,-0.2513,-0.2508,-0.2461,-0.2311,-0.2253,-0.2232,-0.244,-0.2438,-0.2436,-0.229,0,-0.2823,-0.2797,-0.2795,-0.2772,-0.2763,-0.2768,-0.2756,-0.2747,-0.2733,-0.2701,-0.2668,-0.2631,-0.2639,-0.2619,-0.2567,-0.2493,-0.2431,-0.2509,-0.2325,-0.232,-0.2274,-0.2213,-0.2035,-0.1886,-0.2276,-0.2273,-0.2271,0,-0.2777,-0.2773,-0.2745,-0.2747,-0.274,-0.2725,-0.2711,-0.2703,-0.2676,-0.2665,-0.2635,-0.2618,-0.2562,-0.2562,-0.2424,-0.2471,-0.2397,-0.2333,-0.2325,-0.2242,-0.2234,-0.1958,-0.1844,-0.2247,-0.2249,-0.2251,-0.2252,0,-0.275,-0.2736,-0.2715,-0.2713,-0.2713,-0.2694,-0.2692,-0.2676,-0.2661,-0.2641,-0.2616,-0.2569,-0.252,-0.2433,-0.2349,-0.2373,-0.2173,-0.2187,-0.2061,-0.2057,-0.1852,-0.1833,-0.2065,-0.2065,-0.2065,-0.2066,-0.2066,0,-0.2719,-0.2695,-0.2697,-0.2684,-0.2653,-0.2669,-0.2631,-0.263,-0.2613,-0.2574,-0.2593,-0.2533,-0.2479,-0.2383,-0.2314,-0.2139,-0.2146,-0.2036,-0.2001,-0.1865,-0.185,-0.2126,-0.2135,-0.206,-0.2062,-0.2063,-0.2064,0,-0.2663,-0.2673,-0.2639,-0.2635,-0.263,-0.2599,-0.2586,-0.2565,-0.2569,-0.2513,-0.2508,-0.2473,-0.2352,-0.2291,-0.2131,-0.2068,-0.193,-0.1868,-0.1728,-0.1678,-0.1871,-0.1884,-0.1697,-0.1693,-0.169,-0.1688,-0.1686,0,-0.2624,-0.2604,-0.2581,-0.2555,-0.2537,-0.2513,-0.2494,-0.2522,-0.2501,-0.2454,-0.2409,-0.2319,-0.2211,-0.1988,-0.1881,-0.1733,-0.1808,-0.1475,-0.1492,-0.1841,-0.1826,-0.1844,-0.1861,-0.1237,-0.1231,-0.1227,-0.1223,0,-0.2537,-0.2519,-0.2495,-0.2451,-0.2421,-0.2404,-0.2382,-0.2374,-0.239,-0.2345,-0.2243,-0.2154,-0.1957,-0.1725,-0.1572,-0.1454,-0.1497,-0.1378,-0.1715,-0.1384,-0.1401,-0.139,-0.1422,-0.1182,-0.1186,-0.1189,-0.1191,-0.1193,-0.2443,-0.24,-0.2369,-0.2311,-0.2301,-0.228,-0.2229,-0.223,-0.219,-0.2095,-0.2077,-0.1893,-0.1748,-0.1459,-0.1282,-0.113,-0.1244,-0.1125,-0.1141,-0.1161,-0.116,-0.1173,-0.091,-0.0913,-0.0915,-0.0917,-0.0918,0,-0.2305,-0.2273,-0.2231,-0.217,-0.2133,-0.2157,-0.2133,-0.2069,-0.1983,-0.196,-0.1845,-0.1528,-0.132,-0.1186,-0.0903,-0.0786,-0.0782,-0.0697,-0.0706,-0.0744,-0.0778,-0.0762,-0.0404,-0.0404,-0.0403,-0.0402,0,0,-0.2224,-0.2145,-0.2127,-0.2019,-0.198,-0.189,-0.1859,-0.177,-0.1748,-0.1581,-0.1476,-0.1514,-0.1341,-0.1048,-0.0825,-0.0611,-0.0721,-0.0547,-0.0951,-0.1018,-0.1055,-0.0989,-0.1001,0,0,0,0,0]},{"header":{"parameterUnit":"m.s-1","parameterCategory":2,"la1":30.2991,"la2":30.254,"lo1":-89.0895,"lo2":-89.0444,"dy":0.0017,"dx":0.0017,"nx":28,"ny":28,"refTime":"2025-07-11T21:00:00:Z","depth":"2","parameterNumber":3,"parameterNumberName":"V-component_of_CURRENTS"},"data":[0,0,0,0,0,0,0,0,0,0,0,0,0,0,0,0,0,0,0,0,0,0,0,0,0,0,0,0,0,0,0,0,0,0,0,0,0,0,0,0,0,0,0,0,0,0,0,0,0,0,0,0,0,0,0,0,0,0,0.0401,0.0402,0,0.0582,0.0585,0.0587,0.0645,0.0644,0.0642,0.0641,0.0851,0.0858,0.0865,0,0,0,0,0,0,0,0,0,0,0,0,0,0.03,0.0301,0.0401,0.0402,0.0404,0.0581,0.0585,0.0588,0.0645,0.0644,0.0642,0.064,0.0849,0.0857,0.0865,0,0,0,0,0,0,0,0,0,0,0,0,0,0.0406,0.0302,0.04,0.0448,0.0454,0.0581,0.0585,0.0589,0.0646,0.0643,0.0641,0.0639,0.0846,0.0856,0.0867,0.0978,0,0,0.0899,0.0903,0,0,0,0,0,0,0,0,0.0399,0.041,0.044,0.0445,0.0452,0.0582,0.0626,0.0718,0.0646,0.0581,0.0641,0.0638,0.0761,0.0778,0.0828,0.0987,0.0996,0.09,0.0906,0.0911,0.0914,0,0,0,0,0,0,0,0.0392,0.0404,0.048,0.0441,0.0449,0.0527,0.0539,0.0645,0.0688,0.0587,0.0589,0.0598,0.0765,0.0817,0.0833,0.1,0.0899,0.0909,0.0915,0.0919,0.1166,0.1167,0,0,0,0,0,0,0.0347,0.0396,0.0474,0.0485,0.0411,0.053,0.0543,0.0549,0.0686,0.0703,0.06,0.06,0.08,0.082,0.084,0.0862,0.0911,0.092,0.0927,0.1166,0.1166,0.1167,0,0,0,0,0,0,0.0344,0.0352,0.0467,0.0439,0.0458,0.0531,0.0539,0.0553,0.0549,0.0694,0.0712,0.0572,0.0799,0.0826,0.0904,0.0875,0.0925,0.0935,0.1166,0.1166,0.1166,0.0981,0,0,0,0,0,0,0.034,0.035,0.0327,0.0435,0.0457,0.0504,0.0541,0.0558,0.0558,0.0558,0.0679,0.0699,0.08,0.0887,0.0914,0.089,0.0943,0.1165,0.1166,0.1166,0.0987,0.0975,0.0965,0,0,0,0,0,0.0336,0.0312,0.0325,0.0333,0.0426,0.0502,0.0521,0.0573,0.0557,0.0559,0.0641,0.0692,0.0909,0.0897,0.0928,0.0906,0.1165,0.1166,0.1166,0.0992,0.0978,0.0965,0,0,0,0,0,0,0.0261,0.0318,0.0334,0.0328,0.0389,0.0508,0.0502,0.0535,0.0603,0.0584,0.0709,0.0738,0.0796,0.0885,0.0868,0.0982,0.1041,0.1048,0.0898,0.0886,0.0875,0.0833,0.0952,0,0,0,0,0,0.0231,0.0219,0.0304,0.0294,0.0308,0.0391,0.0417,0.0454,0.0533,0.0556,0.0639,0.0735,0.0838,0.0879,0.0987,0.1053,0.1101,0.1058,0.1047,0.1037,0.1027,0.1091,0.1084,0.1168,0.1168,0.1168,0,0,0.0202,0.0226,0.0222,0.0275,0.0318,0.0351,0.0401,0.0418,0.0446,0.0573,0.0609,0.07,0.0849,0.0924,0.0956,0.0981,0.103,0.1037,0.1027,0.1023,0.1091,0.1082,0.1074,0.1169,0.1169,0.1169,0,0,0.0147,0.0149,0.0127,0.0168,0.0209,0.0276,0.0258,0.0344,0.0369,0.0432,0.0528,0.0598,0.0739,0.0848,0.0922,0.0919,0.0972,0.0933,0.0841,0.0902,0.0895,0.0889,0.0887,0.0882,0.0923,0.0923,0.0923,0,0.0104,0.0098,0.0136,0.0135,0.0157,0.0224,0.0228,0.0284,0.0384,0.041,0.0409,0.0606,0.0713,0.0831,0.0821,0.0891,0.0904,0.0869,0.0882,0.0878,0.0875,0.0875,0.0873,0.0914,0.0915,0.0916,0.0917,0,0.0058,0.0047,0.0032,0.0056,0.0087,0.0096,0.0176,0.0195,0.0215,0.0284,0.0356,0.0498,0.0611,0.065,0.0732,0.0774,0.0778,0.0856,0.0898,0.0854,0.0858,0.0859,0.0901,0.0905,0.0907,0.0909,0,0,-0.0013,-0.0002,-0.0009,-0.0008,0.0042,0.0073,0.0093,0.0162,0.0173,0.0236,0.0265,0.0412,0.0447,0.0534,0.0636,0.068,0.0654,0.0725,0.0732,0.0689,0.0717,0.0696,0.0695,0.0712,0.0712,0.0712,0.0706,0,-0.0058,-0.0079,-0.0056,-0.006,-0.0057,0.0001,0.0028,0.0088,0.0138,0.0184,0.0288,0.0364,0.0419,0.0453,0.0498,0.0645,0.0654,0.0644,0.0797,0.08,0.0762,0.0697,0.0844,0.085,0.0707,0.0708,0.0708,0,-0.0105,-0.0108,-0.0133,-0.011,-0.0107,-0.0103,-0.0059,-0.0025,0.0059,0.009,0.0147,0.0239,0.0324,0.0371,0.0514,0.049,0.0563,0.0652,0.0656,0.0706,0.0782,0.0888,0.0858,0.071,0.071,0.071,0.0709,0,-0.0157,-0.0159,-0.0185,-0.0177,-0.0139,-0.0156,-0.0141,-0.0073,-0.0037,0.0019,0.0048,0.015,0.0212,0.0312,0.0456,0.0478,0.059,0.0674,0.0714,0.0712,0.0908,0.0922,0.0744,0.0744,0.0744,0.0744,0.0744,0,-0.0202,-0.0223,-0.0224,-0.0235,-0.0258,-0.0228,-0.0239,-0.0206,-0.0149,-0.0108,-0.0023,0.0034,0.0196,0.0292,0.0406,0.0528,0.0547,0.0668,0.0712,0.0842,0.085,0.0811,0.0819,0.0744,0.0744,0.0744,0.0744,0,-0.026,-0.026,-0.0283,-0.0281,-0.029,-0.0318,-0.0305,-0.0292,-0.025,-0.0198,-0.0184,-0.0053,0.0035,0.0178,0.0356,0.0476,0.0606,0.0643,0.0735,0.0788,0.069,0.0689,0.0691,0.0691,0.069,0.069,0.0689,0,-0.0291,-0.0313,-0.0332,-0.0352,-0.037,-0.0398,-0.0403,-0.036,-0.0327,-0.0238,-0.0203,-0.0123,-0.0065,0.0136,0.0402,0.0565,0.053,0.0764,0.0859,0.0643,0.0687,0.0687,0.0686,0.1033,0.1036,0.1038,0.1039,0,-0.0337,-0.0356,-0.0372,-0.0416,-0.0446,-0.0449,-0.0455,-0.0433,-0.0368,-0.0339,-0.0287,-0.0255,-0.0019,0.026,0.0475,0.0599,0.0749,0.0805,0.0605,0.1002,0.0961,0.1004,0.0994,0.1057,0.1055,0.1054,0.1053,0.1052,-0.0372,-0.0397,-0.0425,-0.0464,-0.0494,-0.0499,-0.0503,-0.0489,-0.047,-0.0403,-0.0349,-0.0171,0.0152,0.0574,0.0646,0.0803,0.0844,0.096,0.0958,0.0952,0.0971,0.093,0.102,0.1018,0.1016,0.1015,0.1014,0,-0.0378,-0.0416,-0.0463,-0.0494,-0.0524,-0.0537,-0.0521,-0.0511,-0.0517,-0.0391,-0.0366,0.009,0.0412,0.0654,0.1003,0.1102,0.1107,0.1022,0.11,0.1091,0.108,0.1104,0.1188,0.1186,0.1184,0.1183,0,0,-0.038,-0.0419,-0.0442,-0.05,-0.0539,-0.0557,-0.0554,-0.056,-0.0452,-0.0377,-0.0111,0.0195,0.0631,0.0887,0.1009,0.1102,0.0996,0.1052,0.0951,0.1022,0.1004,0.114,0.1178,0,0,0,0,0]}],[{"header":{"parameterUnit":"m.s-1","parameterCategory":2,"la1":30.2991,"la2":30.254,"lo1":-89.0895,"lo2":-89.0444,"dy":0.0017,"dx":0.0017,"nx":28,"ny":28,"refTime":"2025-07-11T21:00:00:Z","depth":"4","parameterNumber":2,"parameterNumberName":"U-component_of_CURRENTS"},"data":[0,0,0,0,0,0,0,0,0,0,0,0,0,0,0,0,0,0,0,0,0,0,0,0,0,0,0,0,0,0,0,0,0,0,0,0,0,0,0,0,0,0,0,0,0,0,0,0,0,0,0,0,0,0,0,0,0,0,-0.1127,-0.1128,0,-0.1212,-0.1213,-0.1214,-0.1244,-0.1244,-0.1244,-0.1244,-0.1318,-0.132,-0.1322,0,0,0,0,0,0,0,0,0,0,0,0,0,-0.1067,-0.1067,-0.1127,-0.1128,-0.113,-0.1212,-0.1213,-0.1214,-0.1244,-0.1244,-0.1244,-0.1244,-0.1318,-0.132,-0.1322,0,0,0,0,0,0,0,0,0,0,0,0,0,-0.1114,-0.1067,-0.1127,-0.1157,-0.116,-0.1212,-0.1213,-0.1214,-0.1244,-0.1244,-0.1244,-0.1244,-0.1317,-0.132,-0.1323,-0.1344,0,0,-0.1332,-0.1334,0,0,0,0,0,0,0,0,-0.1111,-0.1115,-0.1151,-0.1155,-0.1159,-0.122,-0.1219,-0.1258,-0.1244,-0.1209,-0.1244,-0.1244,-0.1286,-0.1292,-0.1304,-0.1347,-0.1351,-0.1333,-0.1334,-0.1336,-0.1337,0,0,0,0,0,0,0,-0.1107,-0.1112,-0.1158,-0.1152,-0.1157,-0.1192,-0.1197,-0.1227,-0.1245,-0.1212,-0.1215,-0.1229,-0.1288,-0.1301,-0.1306,-0.1352,-0.1332,-0.1335,-0.1337,-0.1338,-0.1453,-0.1454,0,0,0,0,0,0,-0.1098,-0.1109,-0.1156,-0.1161,-0.1137,-0.1193,-0.1199,-0.1198,-0.1245,-0.1253,-0.1229,-0.123,-0.1296,-0.1303,-0.1309,-0.1386,-0.1336,-0.1339,-0.134,-0.1452,-0.1453,-0.1455,0,0,0,0,0,0,-0.1096,-0.1101,-0.1152,-0.114,-0.1149,-0.1194,-0.1193,-0.12,-0.1233,-0.1258,-0.1266,-0.1257,-0.1296,-0.1305,-0.1362,-0.1387,-0.134,-0.1343,-0.1451,-0.1452,-0.1454,-0.1509,0,0,0,0,0,0,-0.1094,-0.1099,-0.1106,-0.1139,-0.115,-0.119,-0.1193,-0.1202,-0.1241,-0.1244,-0.1284,-0.129,-0.1297,-0.1357,-0.1365,-0.1391,-0.1345,-0.1449,-0.1451,-0.1454,-0.1506,-0.1512,-0.1518,0,0,0,0,0,-0.1091,-0.1101,-0.1105,-0.1112,-0.1153,-0.1191,-0.12,-0.123,-0.1243,-0.1259,-0.1297,-0.129,-0.1376,-0.1362,-0.137,-0.1397,-0.1448,-0.1451,-0.1453,-0.1503,-0.1511,-0.1518,0,0,0,0,0,0,-0.1078,-0.1107,-0.1111,-0.1128,-0.116,-0.1197,-0.122,-0.1243,-0.1286,-0.1297,-0.1317,-0.1326,-0.1381,-0.1384,-0.1367,-0.1435,-0.1406,-0.1411,-0.1441,-0.1449,-0.1455,-0.1433,-0.1348,0,0,0,0,0,-0.1077,-0.1094,-0.1122,-0.114,-0.1152,-0.1189,-0.1214,-0.1237,-0.1276,-0.1296,-0.1328,-0.1361,-0.1396,-0.1419,-0.1445,-0.1492,-0.1473,-0.151,-0.1517,-0.1522,-0.1509,-0.1521,-0.1527,-0.1464,-0.1464,-0.1464,0,0,-0.1082,-0.1099,-0.111,-0.114,-0.1163,-0.1189,-0.1203,-0.1246,-0.1277,-0.1298,-0.1356,-0.1388,-0.1414,-0.1464,-0.1488,-0.1473,-0.153,-0.1525,-0.153,-0.1514,-0.1525,-0.1531,-0.1536,-0.1466,-0.1465,-0.1465,0,0,-0.1094,-0.1106,-0.1121,-0.1144,-0.1185,-0.1209,-0.1224,-0.1273,-0.1301,-0.1362,-0.1384,-0.1437,-0.1488,-0.1516,-0.1534,-0.1591,-0.1563,-0.1597,-0.1616,-0.1629,-0.1634,-0.1638,-0.1619,-0.1621,-0.1601,-0.1601,-0.1601,0,-0.1104,-0.1112,-0.1135,-0.1152,-0.1178,-0.1217,-0.1241,-0.1277,-0.1345,-0.1373,-0.1383,-0.1479,-0.1509,-0.1569,-0.159,-0.1606,-0.1593,-0.1588,-0.1636,-0.164,-0.1643,-0.1623,-0.1624,-0.1604,-0.1604,-0.1603,-0.1603,0,-0.111,-0.1132,-0.1144,-0.1174,-0.1205,-0.1237,-0.128,-0.1322,-0.1365,-0.1403,-0.1477,-0.1527,-0.1577,-0.1603,-0.1618,-0.1663,-0.1639,-0.1644,-0.1615,-0.1653,-0.1629,-0.1629,-0.1608,-0.1607,-0.1606,-0.1606,0,0,-0.1104,-0.1141,-0.1151,-0.1165,-0.122,-0.1245,-0.1298,-0.1353,-0.1389,-0.1458,-0.1502,-0.1587,-0.1614,-0.1635,-0.1668,-0.1687,-0.1712,-0.1676,-0.1676,-0.1652,-0.1714,-0.1538,-0.1521,-0.1726,-0.1726,-0.1727,-0.1687,0,-0.1106,-0.1134,-0.1162,-0.1205,-0.1218,-0.127,-0.1313,-0.1373,-0.1426,-0.1477,-0.1539,-0.1594,-0.1625,-0.1657,-0.1686,-0.1708,-0.1716,-0.172,-0.1684,-0.1682,-0.1517,-0.1517,-0.1729,-0.1687,-0.1687,-0.1687,-0.1687,0,-0.1099,-0.1118,-0.115,-0.1206,-0.1219,-0.1258,-0.1327,-0.1374,-0.145,-0.149,-0.1556,-0.1595,-0.1656,-0.1665,-0.1711,-0.1711,-0.1711,-0.1718,-0.1717,-0.1527,-0.1506,-0.1642,-0.1687,-0.1687,-0.1687,-0.1687,-0.1687,0,-0.1065,-0.1116,-0.114,-0.1158,-0.1222,-0.1258,-0.1305,-0.1382,-0.142,-0.1498,-0.1521,-0.16,-0.1623,-0.166,-0.1675,-0.1699,-0.1686,-0.1723,-0.1559,-0.1547,-0.1696,-0.1692,-0.1731,-0.1731,-0.1731,-0.1731,-0.1731,0,-0.1048,-0.1075,-0.1126,-0.1141,-0.1174,-0.1236,-0.1289,-0.1344,-0.1416,-0.1439,-0.1525,-0.1529,-0.1619,-0.1624,-0.1656,-0.158,-0.167,-0.1538,-0.1519,-0.172,-0.1719,-0.1696,-0.1692,-0.1729,-0.173,-0.173,-0.173,0,-0.1012,-0.1047,-0.1073,-0.1137,-0.1158,-0.1186,-0.1271,-0.1298,-0.1376,-0.1401,-0.1421,-0.1475,-0.1447,-0.1497,-0.1523,-0.1511,-0.1493,-0.1442,-0.1615,-0.161,-0.1355,-0.1355,-0.1266,-0.1259,-0.1253,-0.1249,-0.1245,0,-0.0987,-0.0995,-0.1056,-0.1062,-0.1095,-0.1144,-0.1169,-0.1266,-0.1286,-0.1343,-0.133,-0.1319,-0.1334,-0.1225,-0.1296,-0.1294,-0.1292,-0.1293,-0.1358,-0.1314,-0.1305,-0.1314,-0.1322,-0.1236,-0.1234,-0.1233,-0.1231,0,-0.0934,-0.0967,-0.099,-0.0997,-0.1022,-0.1046,-0.1091,-0.1099,-0.1179,-0.1254,-0.119,-0.1168,-0.1097,-0.1097,-0.1067,-0.1092,-0.1312,-0.1235,-0.1248,-0.1309,-0.1277,-0.1276,-0.129,-0.1211,-0.1214,-0.1216,-0.1217,0,-0.0895,-0.0891,-0.0914,-0.0915,-0.0933,-0.0923,-0.0975,-0.0971,-0.1002,-0.1072,-0.1031,-0.1024,-0.1052,-0.0985,-0.0981,-0.0952,-0.0966,-0.1001,-0.1028,-0.105,-0.0998,-0.0927,-0.0713,0,0,0,0,0,-0.0834,-0.0819,-0.0819,-0.0804,-0.0817,-0.0825,-0.0894,-0.0948,-0.1022,-0.0936,-0.0986,-0.0914,-0.0855,-0.0862,-0.0787,-0.0892,-0.0981,-0.0807,-0.104,-0.1102,-0.1125,-0.1084,0,0,0,0,0,0,-0.0792,-0.0793,-0.0788,-0.0702,-0.0667,-0.0669,-0.0712,-0.0775,-0.0743,-0.0819,-0.0779,-0.0842,-0.0788,-0.0843,-0.0749,-0.0754,-0.0885,-0.0817,-0.0815,-0.1089,-0.111,-0.1128,-0.1094,0,0,0,0,0]},{"header":{"parameterUnit":"m.s-1","parameterCategory":2,"la1":30.2991,"la2":30.254,"lo1":-89.0895,"lo2":-89.0444,"dy":0.0017,"dx":0.0017,"nx":28,"ny":28,"refTime":"2025-07-11T21:00:00:Z","depth":"4","parameterNumber":3,"parameterNumberName":"V-component_of_CURRENTS"},"data":[0,0,0,0,0,0,0,0,0,0,0,0,0,0,0,0,0,0,0,0,0,0,0,0,0,0,0,0,0,0,0,0,0,0,0,0,0,0,0,0,0,0,0,0,0,0,0,0,0,0,0,0,0,0,0,0,0,0,-0.0152,-0.0152,0,-0.0135,-0.0135,-0.0135,-0.0105,-0.0104,-0.0104,-0.0103,-0.0042,-0.0041,-0.004,0,0,0,0,0,0,0,0,0,0,0,0,0,-0.0158,-0.0158,-0.0152,-0.0152,-0.0151,-0.0135,-0.0135,-0.0135,-0.0105,-0.0104,-0.0103,-0.0102,-0.0042,-0.0041,-0.004,0,0,0,0,0,0,0,0,0,0,0,0,0,-0.0152,-0.0158,-0.0152,-0.0132,-0.013,-0.0135,-0.0135,-0.0135,-0.0105,-0.0104,-0.0103,-0.0102,-0.0043,-0.0041,-0.004,-0.0056,0,0,-0.0036,-0.0035,0,0,0,0,0,0,0,0,-0.0152,-0.0152,-0.0136,-0.0134,-0.0131,-0.0119,-0.0115,-0.0106,-0.0106,-0.0117,-0.0103,-0.0101,-0.0063,-0.006,-0.0063,-0.0053,-0.0051,-0.0036,-0.0035,-0.0034,-0.0034,0,0,0,0,0,0,0,-0.0153,-0.0153,-0.0148,-0.0135,-0.0133,-0.0124,-0.0123,-0.0114,-0.0098,-0.0116,-0.0113,-0.0108,-0.0062,-0.0065,-0.0062,-0.005,-0.0036,-0.0035,-0.0034,-0.0033,-0.0039,-0.0039,0,0,0,0,0,0,-0.0152,-0.0153,-0.0148,-0.0147,-0.0136,-0.0125,-0.0123,-0.0126,-0.0099,-0.0094,-0.0109,-0.0107,-0.0068,-0.0063,-0.0059,-0.0065,-0.0034,-0.0033,-0.0033,-0.0038,-0.0039,-0.004,0,0,0,0,0,0,-0.0152,-0.0152,-0.0149,-0.0147,-0.0146,-0.0126,-0.013,-0.0126,-0.0122,-0.0094,-0.0088,-0.0107,-0.0067,-0.0061,-0.0048,-0.0063,-0.0033,-0.0031,-0.0037,-0.0038,-0.0039,-0.0084,0,0,0,0,0,0,-0.0152,-0.0152,-0.0164,-0.0148,-0.0146,-0.0156,-0.0131,-0.0127,-0.012,-0.0117,-0.009,-0.0084,-0.0065,-0.005,-0.0047,-0.006,-0.003,-0.0035,-0.0037,-0.0039,-0.0081,-0.0087,-0.0091,0,0,0,0,0,-0.0153,-0.0169,-0.0165,-0.0164,-0.0159,-0.0156,-0.0156,-0.0138,-0.0121,-0.0128,-0.0105,-0.0084,-0.0059,-0.005,-0.0046,-0.0059,-0.0035,-0.0037,-0.0039,-0.0079,-0.0086,-0.0091,0,0,0,0,0,0,-0.0177,-0.0167,-0.0162,-0.0174,-0.0167,-0.015,-0.0155,-0.014,-0.013,-0.0122,-0.0092,-0.0085,-0.008,-0.0066,-0.0057,-0.0067,-0.0045,-0.0047,-0.0078,-0.0083,-0.0088,-0.0092,-0.0029,0,0,0,0,0,-0.0189,-0.0197,-0.0184,-0.0194,-0.0192,-0.0175,-0.0173,-0.0159,-0.0142,-0.0136,-0.0121,-0.0103,-0.0089,-0.0082,-0.0071,-0.0076,-0.0034,-0.0084,-0.0089,-0.0093,-0.0094,-0.004,-0.0039,-0.0047,-0.0047,-0.0046,0,0,-0.02,-0.0195,-0.0199,-0.02,-0.0192,-0.0205,-0.0171,-0.0167,-0.0177,-0.0132,-0.0144,-0.0119,-0.0094,-0.0098,-0.0095,-0.0085,-0.0069,-0.0096,-0.0099,-0.0098,-0.0042,-0.0041,-0.004,-0.0048,-0.0048,-0.0047,0,0,-0.0221,-0.0222,-0.0235,-0.0238,-0.0229,-0.0223,-0.0222,-0.0211,-0.0205,-0.021,-0.0177,-0.0157,-0.0152,-0.0132,-0.012,-0.0147,-0.0095,-0.0151,-0.0179,-0.0126,-0.0125,-0.0123,-0.0063,-0.0056,-0.0155,-0.0155,-0.0155,0,-0.0234,-0.0252,-0.0238,-0.0254,-0.0263,-0.0234,-0.0255,-0.0251,-0.0238,-0.0236,-0.022,-0.0195,-0.0169,-0.0158,-0.0166,-0.0157,-0.0115,-0.0156,-0.0131,-0.0128,-0.0125,-0.0065,-0.0056,-0.0158,-0.0157,-0.0157,-0.0157,0,-0.0263,-0.0285,-0.0292,-0.0308,-0.0318,-0.0328,-0.0322,-0.0327,-0.0315,-0.0306,-0.0294,-0.0256,-0.0238,-0.0229,-0.0203,-0.018,-0.0152,-0.0139,-0.0111,-0.0127,-0.0063,-0.0052,-0.0161,-0.016,-0.0159,-0.0159,0,0,-0.0273,-0.0306,-0.0311,-0.0336,-0.0348,-0.0359,-0.0378,-0.0386,-0.0394,-0.0375,-0.0381,-0.0343,-0.0312,-0.0296,-0.0258,-0.021,-0.0147,-0.017,-0.0166,-0.0104,-0.0019,0.0026,0.0042,-0.0124,-0.0123,-0.0122,0.002,0,-0.03,-0.0345,-0.0356,-0.0409,-0.0435,-0.0432,-0.0457,-0.0459,-0.045,-0.0452,-0.0399,-0.0391,-0.0341,-0.0328,-0.0273,-0.0188,-0.0123,-0.0186,-0.002,-0.0015,0.0033,0.0054,-0.0118,0.0028,0.003,0.0032,0.0034,0,-0.0328,-0.0356,-0.0409,-0.0465,-0.0476,-0.0507,-0.0537,-0.0552,-0.054,-0.0529,-0.05,-0.0465,-0.0405,-0.0357,-0.0203,-0.0245,-0.0132,-0.0054,-0.0046,0.0019,0.0049,0.0045,0.0053,0.0051,0.005,0.0049,0.0047,0,-0.0342,-0.0399,-0.0445,-0.0464,-0.0516,-0.0542,-0.0566,-0.0573,-0.0585,-0.0574,-0.0573,-0.0506,-0.0466,-0.0335,-0.0182,-0.0186,0.0001,0.0014,0.0169,0.0173,0.011,0.0106,0.0148,0.0148,0.0148,0.0148,0.0147,0,-0.037,-0.0411,-0.0457,-0.0486,-0.0548,-0.057,-0.0618,-0.063,-0.0637,-0.064,-0.0608,-0.0575,-0.0454,-0.0342,-0.0194,0.0017,-0.0001,0.0177,0.0216,0.0087,0.0079,0.0118,0.0113,0.0153,0.0152,0.0151,0.015,0,-0.0387,-0.0413,-0.0474,-0.0535,-0.0559,-0.0601,-0.0659,-0.0685,-0.0685,-0.0686,-0.0684,-0.062,-0.0465,-0.0328,-0.0113,0.0008,0.0195,0.0283,0.0136,0.0163,0.0338,0.0329,0.0469,0.0471,0.0474,0.0476,0.0478,0,-0.0404,-0.0431,-0.0508,-0.0546,-0.0581,-0.0639,-0.0679,-0.0705,-0.0719,-0.0686,-0.0678,-0.0565,-0.0492,-0.016,-0.0019,0.0249,0.0299,0.0386,0.0367,0.0349,0.0373,0.0359,0.0347,0.0481,0.0482,0.0483,0.0483,0,-0.0434,-0.0454,-0.0503,-0.0573,-0.063,-0.0692,-0.0739,-0.0747,-0.0749,-0.0752,-0.0626,-0.048,-0.0306,-0.0104,0.0088,0.0285,0.0311,0.0412,0.0409,0.0392,0.0366,0.0385,0.0369,0.0492,0.0491,0.049,0.0489,0,-0.0455,-0.0491,-0.054,-0.06,-0.0671,-0.072,-0.0746,-0.0727,-0.0727,-0.067,-0.0611,-0.044,-0.0347,-0.0079,0.0108,0.0282,0.034,0.0402,0.04,0.0392,0.0318,0.027,0.0414,0,0,0,0,0,-0.0474,-0.0504,-0.0563,-0.0633,-0.0699,-0.0734,-0.0776,-0.0785,-0.0771,-0.0666,-0.0631,-0.045,-0.0162,-0.0056,0.0137,0.0134,0.0337,0.0364,0.0398,0.0538,0.0529,0.0457,0,0,0,0,0,0,-0.0491,-0.0541,-0.056,-0.0635,-0.0683,-0.0756,-0.078,-0.0774,-0.0699,-0.0651,-0.0497,-0.0396,-0.0131,-0.0271,0.0141,0.0189,0.0243,0.0493,0.0498,0.0544,0.0535,0.0527,0.045,0,0,0,0,0]}]]